Bentonville, AR

2:48 AM CDT on May 25, 2017 (GMT -0500)
Bentonville Municipal-Thaden

Weather History for KVBT - April, 2011

Change the Weather History Date:

Saturday, April 23, 2011

  Actual Average Record
Temperature  
Mean Temperature 58 °F -  
Max Temperature 66 °F 71 °F 88 °F (1958)
Min Temperature 51 °F 45 °F 30 °F (1956)
Degree Days  
Heating Degree Days 6    
Growing Degree Days 8 (Base 50)    
Moisture  
Dew Point 56 °F    
Average Humidity 93    
Maximum Humidity 100    
Minimum Humidity 82    
Precipitation  
Precipitation 2.83 in - - ()
Sea Level Pressure  
Sea Level Pressure 29.83 in    
Wind  
Wind Speed 6 mph (NE)    
Max Wind Speed 30 mph    
Max Gust Speed 44 mph    
Visibility 7 miles    
Events Thunderstorm    
Averages and records for this station are not official NWS values.
T = Trace of Precipitation, MM = Missing Value Source: NWS Daily Summary

Daily Weather History Graph

Daily Weather History Graph

Search for Another Location

Airport or City:

Trip Planner

Search our weather history database for the weather conditions in past years. The results will help you decide how hot, cold, wet, or windy it might be!

Date:

Astronomy

Apr. 23, 2011 Rise Set
Actual Time 6:33 AM CDT 7:57 PM CDT
Civil Twilight 6:06 AM CDT 8:24 PM CDT
Nautical Twilight 5:34 AM CDT 8:57 PM CDT
Astronomical Twilight 5:00 AM CDT 9:31 PM CDT
Moon 1:08 AM CDT (4/23) 11:16 AM CDT (4/23)
Length of Visible Light 14h 18m
Length of Day
13h 24m
Waning Gibbous, 64% of the Moon is Illuminated
Apr 23
Waning Gibbous
Apr 24
Last Quarter
May 3
New
May 10
First Quarter
May 17
Full

Hourly Weather History & Observations

Time (CDT) Temp. Dew Point Humidity Pressure Visibility Wind Dir Wind Speed Gust Speed Precip Events Conditions
12:15 AM 66.2 °F 64.4 °F 94% 29.78 in 9.0 mi SSE 5.8 mph - N/A   Overcast
12:35 AM 66.2 °F 64.4 °F 94% 29.78 in 10.0 mi Calm Calm - N/A Thunderstorm Overcast
12:55 AM 66.2 °F 64.4 °F 94% 29.77 in 10.0 mi Calm Calm - N/A Thunderstorm Mostly Cloudy
1:15 AM 66.2 °F 64.4 °F 94% 29.77 in 10.0 mi SSE 3.5 mph - N/A   Partly Cloudy
1:35 AM 66.2 °F 62.6 °F 88% 29.76 in 10.0 mi SSE 4.6 mph - N/A   Clear
1:55 AM 64.4 °F 62.6 °F 94% 29.75 in 10.0 mi SE 4.6 mph - N/A   Clear
2:15 AM 64.4 °F 62.6 °F 94% 29.75 in 10.0 mi SE 5.8 mph - N/A   Clear
2:35 AM 64.4 °F 62.6 °F 94% 29.75 in 10.0 mi SSE 4.6 mph - N/A   Clear
2:55 AM 64.4 °F 62.6 °F 94% 29.74 in 10.0 mi SE 5.8 mph - N/A   Clear
3:15 AM 64.4 °F 62.6 °F 94% 29.75 in 10.0 mi Calm Calm - N/A   Clear
3:35 AM 62.6 °F 62.6 °F 100% 29.74 in 10.0 mi Calm Calm - N/A   Clear
3:55 AM 62.6 °F 62.6 °F 100% 29.74 in 8.0 mi Calm Calm - N/A   Clear
4:15 AM 62.6 °F 60.8 °F 94% 29.74 in 7.0 mi North 3.5 mph - N/A   Clear
4:55 AM 62.6 °F 62.6 °F 100% 29.77 in 10.0 mi Calm Calm - N/A   Clear
5:15 AM 66.2 °F 60.8 °F 83% 29.79 in 10.0 mi WSW 8.1 mph - N/A   Partly Cloudy
5:35 AM 66.2 °F 60.8 °F 83% 29.80 in 10.0 mi WSW 4.6 mph - N/A   Mostly Cloudy
5:55 AM 66.2 °F 60.8 °F 83% 29.78 in 10.0 mi Calm Calm - N/A   Overcast
6:15 AM 64.4 °F 62.6 °F 94% 29.77 in 10.0 mi NNE 8.1 mph - N/A Thunderstorm Overcast
6:35 AM 62.6 °F 60.8 °F 94% 29.75 in 5.0 mi NNE 12.7 mph 18.4 mph 0.01 in Thunderstorm Overcast
6:55 AM 57.2 °F 51.8 °F 82% 29.80 in 2.5 mi North 29.9 mph 43.7 mph 0.73 in Thunderstorm Thunderstorm
7:15 AM 51.8 °F 50.0 °F 94% 29.82 in 5.0 mi NNE 20.7 mph 32.2 mph 0.47 in Thunderstorm Thunderstorm
7:35 AM 51.8 °F 48.2 °F 88% 29.81 in 6.0 mi ENE 16.1 mph 24.2 mph 0.84 in Thunderstorm Thunderstorm
7:55 AM 51.8 °F 50.0 °F 94% 29.86 in 7.0 mi NNE 11.5 mph 25.3 mph 0.97 in Thunderstorm Mostly Cloudy
8:15 AM 51.8 °F 50.0 °F 94% 29.88 in 4.0 mi ENE 9.2 mph - 0.49 in Thunderstorm Thunderstorm
8:35 AM 51.8 °F 50.0 °F 94% 29.87 in 10.0 mi NNE 11.5 mph - 0.56 in Thunderstorm Thunderstorm
8:55 AM 51.8 °F 50.0 °F 94% 29.88 in 9.0 mi East 6.9 mph - 0.59 in Thunderstorm Overcast
9:15 AM 51.8 °F 50.0 °F 94% 29.86 in 10.0 mi NNE 11.5 mph - 0.05 in Thunderstorm Overcast
9:35 AM 51.8 °F 50.0 °F 94% 29.87 in 10.0 mi NNE 12.7 mph - 0.06 in Thunderstorm Thunderstorm
9:55 AM 51.8 °F 50.0 °F 94% 29.89 in 10.0 mi NE 4.6 mph - 0.10 in Thunderstorm Thunderstorm
10:15 AM 53.6 °F 50.0 °F 88% 29.89 in 10.0 mi NE 6.9 mph - 0.01 in   Overcast
10:35 AM 53.6 °F 50.0 °F 88% 29.89 in 10.0 mi NE 5.8 mph - 0.01 in   Overcast
10:55 AM 53.6 °F 50.0 °F 88% 29.91 in 10.0 mi Calm Calm - 0.01 in   Overcast
11:35 AM 53.6 °F 51.8 °F 94% 29.90 in 8.0 mi NE 9.2 mph - N/A   Overcast
11:55 AM 53.6 °F 51.8 °F 94% 29.89 in 8.0 mi NE 8.1 mph - N/A   Overcast
12:15 PM 53.6 °F 51.8 °F 94% 29.89 in 10.0 mi NE 8.1 mph - N/A   Overcast
12:35 PM 55.4 °F 51.8 °F 88% 29.89 in 10.0 mi NE 8.1 mph - N/A   Overcast
12:55 PM 55.4 °F 51.8 °F 88% 29.88 in 10.0 mi NE 10.4 mph - N/A   Overcast
1:15 PM 55.4 °F 53.6 °F 94% 29.87 in 10.0 mi NE 9.2 mph - N/A   Overcast
1:35 PM 55.4 °F 53.6 °F 94% 29.87 in 10.0 mi ENE 6.9 mph - N/A   Overcast
1:55 PM 55.4 °F 53.6 °F 94% 29.87 in 10.0 mi NE 5.8 mph - N/A   Overcast
2:15 PM 55.4 °F 53.6 °F 94% 29.87 in 2.5 mi ENE 4.6 mph - N/A   Overcast
2:35 PM 55.4 °F 55.4 °F 100% 29.86 in 3.0 mi ENE 5.8 mph - N/A   Overcast
2:55 PM 57.2 °F 55.4 °F 94% 29.85 in 3.0 mi ENE 6.9 mph - N/A   Overcast
3:15 PM 55.4 °F 55.4 °F 100% 29.83 in 3.0 mi ENE 5.8 mph - N/A   Overcast
3:35 PM 57.2 °F 55.4 °F 94% 29.82 in 3.0 mi Calm Calm - 0.11 in Thunderstorm Thunderstorm
3:55 PM 57.2 °F 55.4 °F 94% 29.84 in 5.0 mi North 5.8 mph - 0.19 in Thunderstorm Thunderstorm
4:15 PM 55.4 °F 55.4 °F 100% 29.83 in 4.0 mi North 6.9 mph - 0.06 in   Overcast
4:35 PM 57.2 °F 55.4 °F 94% 29.84 in 4.0 mi North 5.8 mph - 0.10 in Thunderstorm Overcast
4:55 PM 57.2 °F 55.4 °F 94% 29.83 in 8.0 mi North 5.8 mph - 0.14 in Thunderstorm Thunderstorm
5:15 PM 57.2 °F 55.4 °F 94% 29.84 in 3.0 mi North 5.8 mph - 0.03 in   Overcast
5:35 PM 57.2 °F 55.4 °F 94% 29.84 in 2.5 mi North 6.9 mph - 0.03 in   Overcast
5:55 PM 57.2 °F 55.4 °F 94% 29.85 in 4.0 mi North 8.1 mph - 0.04 in   Overcast
6:15 PM 57.2 °F 55.4 °F 94% 29.86 in 2.5 mi North 6.9 mph - N/A   Overcast
6:55 PM 57.2 °F 55.4 °F 94% 29.85 in 3.0 mi NNE 5.8 mph - 0.01 in   Overcast
7:15 PM 57.2 °F 55.4 °F 94% 29.86 in 3.0 mi NNE 3.5 mph - 0.03 in Thunderstorm Overcast
7:35 PM 57.2 °F 55.4 °F 94% 29.87 in 2.5 mi ENE 3.5 mph - 0.04 in   Overcast
7:55 PM 57.2 °F 55.4 °F 94% 29.87 in 3.0 mi NNE 5.8 mph - 0.04 in   Overcast
8:15 PM 57.2 °F 55.4 °F 94% 29.88 in 7.0 mi Calm Calm - N/A   Overcast
8:55 PM 57.2 °F 55.4 °F 94% 29.88 in 10.0 mi NE 4.6 mph - 0.01 in   Overcast
9:15 PM 57.2 °F 55.4 °F 94% 29.89 in 10.0 mi NE 3.5 mph - N/A   Overcast
9:35 PM 57.2 °F 55.4 °F 94% 29.90 in 9.0 mi NNE 4.6 mph - N/A   Overcast
9:55 PM 57.2 °F 55.4 °F 94% 29.90 in 8.0 mi North 5.8 mph - N/A Thunderstorm Overcast
10:15 PM 57.2 °F 55.4 °F 94% 29.89 in 5.0 mi NE 5.8 mph - N/A Thunderstorm Overcast
10:35 PM 57.2 °F 55.4 °F 94% 29.90 in 10.0 mi ENE 4.6 mph - 0.02 in Thunderstorm Overcast
10:55 PM 57.2 °F 55.4 °F 94% 29.91 in 10.0 mi NNE 3.5 mph - 0.13 in Thunderstorm Thunderstorm
11:15 PM 57.2 °F 55.4 °F 94% 29.91 in 7.0 mi North 8.1 mph - 0.07 in Thunderstorm Thunderstorm
11:35 PM 57.2 °F 55.4 °F 94% 29.92 in 9.0 mi North 6.9 mph - 0.10 in Thunderstorm Thunderstorm
11:55 PM 57.2 °F 55.4 °F 94% 29.95 in 10.0 mi North 6.9 mph - 0.13 in Thunderstorm Overcast